Location: Unspecified
(50.7693°N, 0.0000°E)
Time: 13:33:30
(UTC+00:00)

SR - Pass Details

Date: 25 June 2019
Orbit: 578 x 878 km, 66.7° (Epoch: 16 August)

Event Time Altitude Azimuth Distance (km) Brightness Sun altitude
Rises 07:31:47 0° 311° (NW) 2,874 ? 31.9°
Reaches altitude 10° 07:35:47 10° 348° (NNW) 2,029 ? 32.5°
Maximum altitude 07:37:08 11° 5° (N) 1,975 ? 32.7°
Drops below altitude 10° 07:38:32 10° 23° (NNE) 2,077 ? 32.9°
Sets 07:42:48 0° 58° (ENE) 3,076 ? 33.6°
